CW8756 Weather Reports


time (UTC)temp
F
wind
direction
speed
knots
gust
knots
rain 1hr
in
rain 24hr
in
rain mn
in
humidity
%
barometer
mb
20260507194529 84 346 0.0 0.0 0.00 0.00 0.00 100 1013.2
20260507193027 84 357 0.0 0.0 0.00 0.00 0.00 100 1013.3
20260507191527 83 332 0.0 0.0 0.00 0.00 0.00 100 1013.3
20260507190024 84 62 0.0 0.0 0.00 0.00 0.00 100 1013.3
20260507184524 84 310 0.0 0.0 0.00 0.00 0.00 100 1013.4
20260507183022 84 359 0.0 0.0 0.00 0.00 0.00 100 1013.8
20260507181520 85 6 0.0 0.0 0.00 0.00 0.00 100 1014.0
20260507180023 85 308 0.0 0.0 0.00 0.00 0.00 100 1014.2
20260507174523 85 308 0.0 0.0 0.00 0.00 0.00 100 1014.3
20260507173044 85 25 0.0 0.0 0.00 0.00 0.00 100 1014.5
20260507171523 84 34 0.0 0.0 0.00 0.00 0.00 100 1014.7
20260507170015 84 27 0.0 0.0 0.00 0.00 0.00 100 1014.9
20260507164517 84 292 0.0 0.0 0.00 0.00 0.00 100 1015.1
20260507163013 84 329 0.0 0.0 0.00 0.00 0.00 100 1015.2
20260507161513 85 320 0.0 0.0 0.00 0.00 0.00 100 1015.5
20260507160012 84 346 0.0 0.0 0.00 0.00 0.00 100 1015.5
20260507154510 84 358 0.0 0.0 0.00 0.00 0.00 100 1015.6
20260507153009 84 320 0.0 0.0 0.00 0.00 0.00 100 1015.6
20260507151508 84 63 0.0 0.0 0.00 0.00 0.00 100 1015.7
20260507150005 84 349 0.0 0.0 0.00 0.00 0.00 100 1015.9
20260507144501 83 7 0.0 0.0 0.00 0.00 0.00 100 1015.7
20260507143105 83 10 0.0 0.0 0.00 0.00 0.00 100 1015.7
20260507141609 82 31 0.0 0.0 0.00 0.00 0.00 100 1015.8
20260507140101 82 307 0.0 0.0 0.00 0.00 0.00 100 1015.8
20260507134558 82 314 0.0 0.0 0.00 0.00 0.00 100 1015.8
20260507133142 82 6 0.0 0.0 0.00 0.00 0.00 100 1015.6
20260507131557 82 327 0.0 0.0 0.00 0.00 0.00 100 1015.6
20260507130101 81 320 0.0 0.0 0.00 0.00 0.00 100 1015.5
20260507124555 81 358 0.0 0.0 0.00 0.00 0.00 100 1015.4
20260507123051 81 12 0.0 0.0 0.00 0.00 0.00 100 1015.1
20260507121547 80 336 0.0 0.0 0.00 0.00 0.00 100 1015.1
20260507120046 81 75 0.0 0.0 0.00 0.00 0.00 100 1014.7
20260507114558 81 71 0.0 0.0 0.00 0.00 0.00 100 1014.5
20260507113042 80 83 0.0 0.0 0.00 0.00 0.00 100 1014.4
20260507111542 80 223 0.0 0.0 0.00 0.00 0.00 100 1014.4
20260507110042 78 224 0.0 0.0 0.00 0.00 0.00 100 1014.3
20260507104534 77 130 0.0 0.0 0.00 0.00 0.00 100 1014.2
20260507103043 0 0.0 0.0 0.00 0.00 0.00 1014.1
20260507101536 0 0.0 0.0 0.00 0.00 0.00 1014.2
20260507100027 0 0.0 0.0 0.00 0.00 0.00 1013.9
20260507094523 0 0.0 0.0 0.00 0.00 0.00 1013.6
20260507093019 0 0.0 0.0 0.00 0.00 0.00 1013.5
20260507091514 0 0.0 0.0 0.00 0.00 0.00 1013.4
20260507090012 0 0.0 0.0 0.00 0.00 0.00 1013.6
20260507084504 0 0.0 0.0 0.00 0.00 0.00 1013.6
20260507083002 0 0.0 0.0 0.00 0.00 0.00 1013.8
20260507081557 0 0.0 0.0 0.00 0.00 0.00 1013.8
20260507080054 0 0.0 0.0 0.00 0.00 0.00 1013.7
20260507074552 0 0.0 0.0 0.00 0.00 0.00 1013.7
20260507073051 0 79 0.0 0.0 0.00 0.00 0.00 1013.8
20260507071543 76 121 0.0 0.0 0.00 0.00 0.00 100 1013.7
20260507070050 77 132 0.0 0.0 0.00 0.00 0.00 100 1013.9
20260507064546 77 123 0.0 0.0 0.00 0.00 0.00 100 1014.1
20260507063038 78 138 0.0 0.0 0.00 0.00 0.00 100 1014.2
20260507061538 78 110 0.0 0.0 0.00 0.00 0.00 100 1014.4
20260507060036 78 212 0.0 0.0 0.00 0.00 0.00 100 1014.6
20260507054535 78 109 0.0 0.0 0.00 0.00 0.00 100 1014.9
20260507053036 78 139 0.0 0.0 0.00 0.00 0.00 100 1015.0
20260507051536 78 126 0.0 0.0 0.00 0.00 0.00 100 1015.1
20260507050037 78 243 0.0 0.0 0.00 0.00 0.00 100 1015.3
20260507044542 79 114 0.0 0.0 0.00 0.00 0.00 100 1015.7
20260507043035 79 126 0.0 0.0 0.00 0.00 0.00 100 1015.7
20260507041535 79 131 0.0 0.0 0.00 0.00 0.00 100 1016.0
20260507040041 79 113 0.0 0.0 0.00 0.00 0.00 100 1016.1
20260507034541 79 138 0.0 0.0 0.00 0.00 0.00 100 1016.3
20260507033044 80 138 0.0 0.0 0.00 0.00 0.00 100 1016.3
20260507031545 80 7 0.0 0.0 0.00 0.00 0.00 100 1016.3
20260507030030 80 52 0.0 0.0 0.00 0.00 0.00 100 1016.4
20260507024526 80 40 0.0 0.0 0.00 0.00 0.00 100 1016.5
20260507023025 80 78 0.0 0.0 0.00 0.00 0.00 100 1016.5
20260507021525 80 17 0.0 0.0 0.00 0.00 0.00 100 1016.4
20260507020025 80 4 0.0 0.0 0.00 0.00 0.00 100 1016.3
20260507014525 80 82 0.0 0.0 0.00 0.00 0.00 100 1016.1
20260507013027 80 54 0.0 0.0 0.00 0.00 0.00 100 1016.1
20260507011529 80 7 0.0 0.0 0.00 0.00 0.00 100 1015.9
20260507010020 80 32 0.0 0.0 0.00 0.00 0.00 100 1015.7
20260507004518 80 347 0.0 0.0 0.00 0.00 0.00 100 1015.7
20260507003019 80 48 0.0 0.0 0.00 0.00 0.00 100 1015.7
20260507001525 80 13 0.0 0.0 0.00 0.00 0.00 100 1015.5
20260507000018 81 121 0.0 0.0 0.00 0.00 0.00 100 1015.4
20260506234517 80 14 0.0 0.0 0.00 0.00 0.00 100 1015.4
20260506233017 81 346 0.0 0.0 0.00 0.00 0.00 100 1015.3
20260506231519 81 50 0.0 0.0 0.00 0.00 0.00 100 1015.2
20260506230017 81 66 0.0 0.0 0.00 0.00 0.00 100 1014.8
20260506224517 81 15 0.0 0.0 0.00 0.00 0.00 100 1014.7
20260506223018 81 28 0.0 0.0 0.00 0.00 0.00 100 1014.5
20260506221515 81 23 0.0 0.0 0.00 0.00 0.00 100 1014.6
20260506220016 82 25 0.0 0.0 0.00 0.00 0.00 100 1014.3
20260506214514 82 329 0.0 0.0 0.00 0.00 0.00 100 1014.2
20260506213014 83 14 0.0 0.0 0.00 0.00 0.00 100 1014.1
20260506211520 83 36 0.0 0.0 0.00 0.00 0.00 100 1014.0
20260506210016 84 360 0.0 0.0 0.00 0.00 0.00 100 1014.0
20260506204510 84 334 0.0 0.0 0.00 0.00 0.00 100 1014.1
20260506203010 84 38 0.0 0.0 0.00 0.00 0.00 99 1014.0
20260506201510 84 3 0.0 0.0 0.00 0.00 0.00 99 1014.0
20260506200007 85 279 0.0 0.0 0.00 0.00 0.00 98 1014.1